SCP
8 7 6 5 5 4 4 4 4 5 5 6 5 5 5 5 5 4 4 4 4 3 3 2 3 3 2 2 2 2 3 4 4 3 3 4 4 5 5 4 4 3 3
9 8 7 6 5 5 4 4 4 5 5 5 5 5 5 4 4 4 4 4 4 3 3 3 3 3 3 3 3 3 3 3 4 4 4 4 5 5 6 5 4 3 3
9 8 8 7 7 7 6 6 5 5 5 5 6 6 6 5 5 5 4 4 4 4 4 4 4 4 4 5 5 4 4 4 4 5 5 5 5 6 7 6 6 5 5
8 8 8 8 9 8 8 8 7 7 6 6 6 6 6 6 6 5 5 5 5 5 5 5 5 6 6 7 7 7 7 6 6 6 6 6 6 7 8 8 8 7 7
9 8 8 9 10 10 10 10 9 8 8 7 7 7 6 6 5 5 5 6 6 6 6 7 7 7 7 7 7 7 8 8 8 8 7 7 7 8 9 9 9 9 9
13 11 9 10 11 12 12 11 10 9 8 8 8 7 7 6 5 4 5 6 8 8 9 9 8 8 7 7 6 6 6 7 8 8 8 8 8 9 10 10 10 10 10
16 13 11 11 11 13 13 13 12 10 9 8 8 8 8 7 5 4 4 7 9 10 11 11 10 9 8 8 7 6 5 5 6 7 7 7 7 9 10 11 11 11 10
16 14 11 9 10 13 15 15 14 13 11 10 9 9 8 8 6 4 4 7 11 12 12 12 11 9 8 8 8 8 8 7 6 5 6 6 6 7 9 10 11 10 9
15 13 10 8 8 11 15 17 17 16 14 12 11 10 9 8 6 4 4 7 12 14 13 11 9 8 7 6 7 9 10 10 8 6 5 5 5 5 6 9 9 9 8
13 11 8 8 8 10 13 16 17 17 16 15 14 12 11 9 7 4 4 8 12 13 11 9 7 5 4 3 4 6 8 8 7 5 5 5 5 6 6 8 9 8 7
10 9 7 7 9 10 13 16 18 17 17 17 18 16 13 10 7 4 4 8 11 10 8 6 5 3 2 1 2 3 4 5 4 4 4 4 6 7 7 8 8 8 7
8 7 7 8 10 12 16 18 19 18 17 18 21 20 15 9 5 3 3 5 7 6 5 5 3 2 1 0 1 1 2 3 3 3 3 4 5 6 6 7 7 6 6
8 8 10 12 15 17 20 20 19 17 15 16 19 19 12 7 5 4 3 2 2 3 3 3 2 1 0 0 0 1 1 3 4 5 4 4 4 5 5 5 5 5 5
10 11 14 16 19 21 21 18 16 13 12 12 15 14 9 6 5 5 4 2 1 1 2 2 1 0 0 1 1 1 2 3 5 5 4 4 4 5 5 5 5 5 5
11 12 13 14 16 17 15 12 9 8 7 9 10 9 7 6 4 3 3 3 2 1 1 1 1 1 1 1 2 2 2 3 4 4 4 4 4 4 4 5 6 6 6
9 9 9 9 10 9 8 6 5 4 4 5 6 5 4 3 2 1 2 2 2 1 2 2 2 2 2 2 3 3 3 4 4 4 4 4 3 3 3 4 5 5 5
7 7 7 8 7 5 5 4 4 2 2 2 2 1 1 1 1 1 1 1 1 1 2 3 3 3 3 4 4 4 4 4 4 4 4 3 3 2 2 3 4 4 4
6 5 6 8 7 5 4 4 4 3 3 2 2 1 0 0 0 0 1 2 2 2 3 3 4 5 6 6 6 5 4 3 3 3 3 2 2 2 2 2 3 3 3
4 4 4 6 7 6 4 4 4 4 4 4 4 2 1 1 1 1 2 5 6 6 5 5 6 6 7 6 5 3 2 2 2 2 2 2 2 2 2 2 2 2 2
3 2 3 5 7 7 5 4 6 7 7 7 6 5 3 2 3 2 4 8 10 10 9 7 6 5 4 3 2 2 2 2 2 2 1 1 2 2 2 2 2 2 2
2 2 3 5 8 7 5 5 6 9 10 9 8 6 4 4 4 4 6 10 13 13 10 6 4 3 2 1 1 2 2 2 2 2 1 1 1 2 2 3 3 2 2
2 2 4 8 9 8 7 6 6 7 9 9 8 6 4 4 4 4 5 8 10 10 6 3 1 1 1 1 1 1 2 2 2 2 2 2 2 2 2 2 2 2 1
2 2 4 8 10 9 8 8 6 5 6 7 7 5 4 3 3 2 3 3 4 4 2 1 1 1 1 1 1 1 1 1 1 1 1 1 2 2 2 2 2 1 1
2 2 3 5 8 8 8 6 5 4 4 5 4 4 3 2 1 1 1 1 1 2 2 1 1 1 1 2 2 1 1 0 1 1 1 1 1 1 1 1 1 1 1
2 2 2 3 5 6 5 4 3 2 2 2 1 1 1 0 0 1 1 1 2 2 1 1 1 1 1 1 1 1 0 0 0 0 0 0 1 1 1 1 1 1 1
2 2 3 3 4 4 4 3 1 1 0 0 0 0 0 0 0 1 1 1 1 1 1 1 1 1 1 1 1 0 0 0 0 0 0 0 0 1 1 1 1 1 1
Wind_Speed
5 4 3 4 4 3 3 2 2 2 2 2 2 2 2 2 2 2 3 3 3 3 2 2 2 2 2 2 2 2 2 2 2 2 1 1 1 1 2 3 4 5 6
4 4 3 3 3 3 3 2 2 2 2 1 2 2 2 2 2 3 3 3 3 3 3 3 3 2 3 3 3 2 2 2 2 3 2 1 2 2 3 4 4 5 5
4 4 3 3 3 3 2 2 2 2 2 2 2 2 2 2 2 3 3 3 3 3 3 3 3 2 3 2 2 3 3 3 2 2 3 1 1 2 2 3 4 3 5
4 4 3 3 3 3 2 2 2 2 2 1 2 2 2 2 2 2 2 3 2 2 2 2 1 2 2 3 2 3 3 3 3 3 3 2 2 2 2 2 3 2 3
3 3 3 2 2 2 2 2 2 1 2 1 2 2 2 2 2 2 2 3 2 2 2 1 1 1 1 2 2 2 2 2 3 3 3 2 2 1 2 2 3 2 3
2 2 2 2 2 2 1 1 1 1 1 1 1 1 1 2 2 2 2 2 2 2 2 2 2 3 2 2 2 2 2 3 3 3 2 3 3 2 2 3 3 3 3
2 2 2 2 2 2 1 1 1 1 1 0 1 0 1 1 2 3 2 2 3 2 2 2 3 2 1 1 2 4 4 4 4 3 3 4 3 3 2 3 3 4 4
2 2 2 2 1 1 1 1 1 1 1 1 0 0 0 1 3 3 3 3 3 2 2 2 2 1 2 2 3 3 3 3 4 4 3 4 4 3 3 4 4 5 4
2 2 1 1 1 1 1 1 1 0 0 1 1 0 0 1 2 3 3 3 2 3 2 1 1 0 3 3 3 3 3 3 3 4 4 5 5 5 4 3 3 4 4
1 1 1 1 1 1 0 0 1 1 0 0 1 1 1 0 1 2 2 3 2 2 1 0 1 1 2 2 2 3 4 4 4 3 4 5 5 5 4 4 4 3 4
0 1 1 1 1 2 1 1 0 1 1 1 1 1 1 1 1 1 1 2 3 2 2 1 0 1 1 2 3 3 5 5 5 4 4 3 3 3 3 4 4 3 4
0 0 1 1 2 1 1 1 1 1 2 2 2 2 1 1 1 1 2 2 3 3 2 1 1 2 2 3 3 4 6 6 4 4 3 3 3 3 3 4 4 5 5
0 1 1 2 1 2 2 2 2 2 2 1 1 1 0 1 1 2 2 3 3 2 2 3 3 3 4 4 5 6 5 3 3 4 4 3 3 3 3 3 3 4 5
1 1 1 2 2 2 1 1 1 1 1 1 1 0 0 1 1 2 2 2 2 2 2 3 3 3 4 4 4 3 3 3 3 3 4 3 3 3 3 2 2 2 3
1 2 2 2 2 2 2 1 1 1 1 1 0 0 0 0 1 1 1 2 2 3 3 2 2 2 2 2 2 2 2 2 3 3 3 3 4 3 3 2 2 2 3
1 1 1 2 2 2 3 2 2 2 3 4 2 1 1 1 1 0 2 3 4 3 2 2 2 2 2 3 3 2 2 2 3 3 3 3 3 3 3 2 2 2 3
1 1 1 1 2 2 2 2 2 2 2 2 2 2 2 1 1 1 2 3 3 2 1 2 3 3 3 3 3 3 2 3 3 3 3 3 3 3 3 3 2 2 3
2 1 1 1 1 1 1 2 2 2 2 1 2 3 3 2 1 1 2 3 2 1 1 2 2 2 2 3 3 3 3 3 3 3 3 3 3 3 3 3 3 3 3
2 1 1 0 1 0 0 1 1 1 1 1 2 2 2 1 2 1 2 1 2 2 2 2 2 3 2 2 3 3 3 3 3 3 3 3 3 3 3 3 3 4 4
2 1 1 0 0 0 0 0 0 0 0 1 1 2 2 1 1 1 1 1 2 2 3 3 3 3 3 2 3 3 3 3 4 3 3 3 4 4 4 4 4 4 3
1 1 1 1 0 0 1 1 1 1 1 1 1 2 3 1 0 1 0 0 1 2 2 3 3 3 3 4 4 4 4 4 4 5 5 5 5 4 4 4 4 4 4
1 0 1 0 1 1 1 1 1 1 1 1 1 2 4 0 1 2 2 2 2 2 2 2 3 3 3 4 4 5 5 5 5 5 5 5 5 5 5 5 5 4 4
1 1 1 1 1 2 1 1 1 1 1 1 1 1 1 1 2 2 2 2 2 2 2 2 2 3 3 4 4 5 5 5 5 6 6 6 5 5 5 5 6 6 5
1 0 1 1 2 1 1 1 1 1 1 1 1 1 1 1 1 2 2 2 2 2 3 3 3 5 6 5 4 5 6 6 6 6 8 7 7 6 5 5 5 6 5
0 1 1 1 1 1 1 1 1 1 1 1 1 1 1 1 1 1 1 1 2 3 4 3 3 4 6 7 7 6 6 6 6 7 6 6 7 7 6 6 5 5 5
1 1 1 1 1 1 1 1 1 1 1 1 1 1 1 1 0 0 1 2 2 2 3 3 3 5 6 6 7 5 4 5 6 7 6 6 6 6 6 5 6 5 5
Wind_Direction
170 177 178 174 180 182 185 188 183 181 189 199 199 200 200 205 220 224 230 228 232 242 247 251 259 270 280 282 277 268 264 245 250 277 263 194 173 188 183 204 188 191 197
165 168 171 167 174 180 189 195 191 193 198 194 205 214 219 218 226 233 235 240 238 242 242 245 253 258 271 279 281 278 277 267 248 258 263 249 228 198 197 216 216 213 205
162 161 158 171 181 186 194 195 193 195 205 211 209 219 228 239 245 247 244 248 251 253 249 245 250 249 268 266 277 285 279 276 266 262 264 255 241 226 214 240 241 234 229
151 157 160 176 182 188 186 189 197 200 213 226 237 237 235 241 251 256 252 253 259 266 267 264 271 268 276 279 269 279 283 289 283 271 265 260 245 239 222 239 253 242 253
154 164 170 174 173 176 181 190 194 201 212 220 236 249 252 251 263 268 253 239 243 251 254 257 270 289 289 272 276 290 288 283 278 270 265 274 272 256 252 255 259 254 254
158 167 159 160 162 175 187 179 190 209 215 233 253 268 269 285 348 355 304 271 256 248 247 246 239 249 246 230 242 263 267 271 288 290 282 272 268 263 269 277 278 275 272
144 145 144 152 160 172 192 183 198 206 165 218 289 301 321 351 356 359 335 276 271 265 268 269 272 286 254 255 239 246 258 263 252 266 288 290 288 283 266 267 275 277 269
135 132 136 152 156 147 164 176 179 175 175 187 333 20 298 350 2 351 330 267 266 261 261 271 286 336 322 316 286 264 253 256 254 244 257 272 285 303 282 266 266 269 270
129 134 137 147 145 145 166 174 152 143 172 162 136 116 345 347 356 344 328 285 275 275 273 303 303 329 326 323 298 290 285 274 259 252 245 253 262 272 276 285 282 274 274
138 131 126 154 170 175 203 212 192 167 184 195 173 162 193 314 350 1 344 294 289 293 289 15 39 343 318 331 302 299 290 291 294 279 271 267 262 261 253 239 259 275 282
355 138 140 180 191 168 165 169 163 199 215 233 236 191 186 188 272 322 338 319 313 301 292 293 301 321 308 303 292 288 288 295 290 275 266 259 256 252 244 235 234 239 257
284 221 175 191 230 178 162 180 199 219 227 232 239 233 201 180 201 286 277 281 298 304 309 319 318 306 295 287 281 288 297 300 290 284 278 276 270 264 255 243 237 234 234
213 228 208 183 194 191 197 204 207 212 227 226 226 232 109 95 60 357 313 301 303 299 321 328 312 298 300 289 274 281 288 283 283 283 283 282 276 269 265 258 246 242 249
199 230 218 169 172 177 181 180 199 212 227 231 223 233 181 86 49 12 341 319 312 300 312 306 288 272 278 285 290 282 267 269 276 279 286 288 288 281 274 270 267 266 262
235 224 224 194 183 184 184 197 192 157 167 192 314 48 94 88 293 272 296 315 322 320 312 288 287 295 293 288 290 290 278 270 269 274 281 289 291 288 284 286 278 276 275
249 241 229 201 192 190 174 148 71 102 143 141 148 163 122 117 140 359 330 326 328 342 333 310 319 320 316 309 306 305 303 304 298 288 284 289 294 297 297 298 301 300 293
258 255 263 237 210 204 187 176 163 117 101 128 152 146 132 135 140 328 335 339 333 359 326 312 320 324 329 331 330 329 324 319 315 314 318 313 307 303 303 303 300 297 292
261 250 252 244 242 234 193 184 190 184 176 133 131 137 138 148 146 303 13 25 349 334 292 309 317 328 340 338 336 335 338 340 335 331 331 330 328 319 311 306 299 290 284
265 278 261 270 262 242 161 180 192 180 162 152 128 115 139 125 79 43 67 359 324 339 341 342 335 339 345 341 340 341 340 339 335 334 340 336 327 318 316 313 308 304 294
225 233 247 262 267 29 77 210 111 120 128 104 112 104 107 84 67 79 137 286 325 341 347 355 352 344 345 350 344 344 343 342 341 344 346 338 326 319 313 309 309 308 304
260 165 181 227 297 0 48 42 50 76 68 68 85 109 134 156 297 340 32 327 339 342 354 351 348 351 357 356 349 345 345 353 1 355 346 335 329 324 320 318 317 315 313
270 198 171 136 77 66 62 56 53 59 56 49 64 107 150 169 4 12 9 15 21 17 11 358 348 355 4 358 351 346 352 6 9 355 339 330 328 327 325 325 324 323 323
253 226 152 110 102 96 92 54 42 43 46 39 32 76 102 24 17 28 14 11 17 3 3 9 357 354 3 3 7 16 21 13 355 343 335 329 326 322 319 319 319 318 320
263 258 82 79 77 81 80 69 41 33 34 32 42 46 70 66 25 20 15 10 4 12 16 13 14 18 20 18 28 38 29 9 351 345 343 330 324 320 318 316 315 317 318
301 80 87 79 69 65 82 66 42 26 16 29 41 34 25 47 45 18 11 14 9 16 15 16 26 28 29 32 40 33 21 8 359 343 329 319 318 318 316 317 316 316 321
29 29 19 57 103 117 119 88 58 39 49 45 50 50 27 5 19 29 27 28 18 22 19 22 27 32 41 50 42 38 24 360 346 333 321 311 309 315 323 322 320 318 317